Torna al catalogo

DELTA 1 DEB

AttivoPO
NORAD 37647·DEBRIS·🇺🇸 United States

Lanciato Mar 5, 1978 da Vandenberg Space Force Base

Loading…

Prossimi Passaggi (prossime 24 ore)

TLE

AggiornatoSource: Space-Track

Epoca: Sep 14, 2026, 08:35 UTC

1 37647U 78026JJ  26257.35807702  .00000395  00000-0  39818-3 0  9993
2 37647  98.7657 299.4329 0232804 108.4194 254.2416 13.71078301648750

Traccia DELTA 1 DEB in tempo reale con AllMySat

Download on the App Store